contact:dominique.lefevre@mio.osupytheas.fr, maurice.libes@osupytheas.fr
Project:EMSO Ligure-ouest http://www.emso-fr.org/EMSO-France
Sensor Aquadopp, line 04 Serial AQD8517 
DOI : "https://doi.org/10.17882/74513; https://doi.org/10.17882/83244" 
Title:EMSO Ligure Ouest : Data ligne ALBATROSS capteur AQUADOPP - deploiement 2021
Id,Date,Profondeur,Latitude,Longitude,X_East,Y_North,Z_Up,Amplitude_X,Amplitude_Y,Amplitude_Z,Batterie,SoundSpeed,Heading,Pitch,Roll,Pressure,Temperature,Speed,Direction
, , m, degrees North, degrees East, m.s-1, m.s-1,m.s-1, 1, 1, 1, Volt, m.s-1, degree, degree, degree, dbar, degree_C, m.s-1, degree
01,2021-11-09T21:30:00,500.0,42.79,6.0312,-0.003,0.01,0.003,54.0,58.0,51.0,12.7,1505.9,7.4,-0.1,0.6,452.267,13.67,0.01,343.3
01,2021-11-09T22:00:00,500.0,42.79,6.0312,-0.011,0.005,0.02,60.0,50.0,52.0,12.7,1506.0,327.0,-0.1,0.7,452.299,13.69,0.012,294.4
01,2021-11-09T22:30:00,500.0,42.79,6.0312,-0.013,-0.003,0.01,56.0,50.0,56.0,12.7,1505.9,260.7,-0.1,0.6,452.291,13.67,0.013,257.0
01,2021-11-09T23:00:00,500.0,42.79,6.0312,-0.012,0.011,0.02,62.0,51.0,54.0,12.7,1506.0,297.7,-0.1,0.6,452.298,13.7,0.016,312.5
01,2021-11-09T23:30:00,500.0,42.79,6.0312,-0.015,0.006,0.01,56.0,51.0,51.0,12.7,1506.0,289.9,-0.2,0.7,452.273,13.69,0.016,291.8
01,2021-11-10T00:00:00,500.0,42.79,6.0312,-0.026,0.005,0.001,56.0,53.0,51.0,12.7,1505.9,280.9,-0.1,0.6,452.283,13.67,0.026,280.9
01,2021-11-10T00:30:00,500.0,42.79,6.0312,-0.031,0.001,0.012,59.0,51.0,51.0,12.7,1506.0,283.9,-0.1,0.7,452.235,13.71,0.031,271.8
01,2021-11-10T01:00:00,500.0,42.79,6.0312,-0.023,0.018,0.006,57.0,52.0,50.0,12.7,1506.0,303.7,-0.2,0.6,452.233,13.71,0.029,308.0
01,2021-11-10T01:30:00,500.0,42.79,6.0312,-0.031,0.017,0.005,55.0,49.0,52.0,12.7,1506.0,291.1,-0.3,0.6,452.248,13.68,0.035,298.7
01,2021-11-10T02:00:00,500.0,42.79,6.0312,-0.019,0.014,0.001,57.0,51.0,52.0,12.7,1506.0,303.9,-0.1,0.6,452.254,13.69,0.023,306.4
01,2021-11-10T02:30:00,500.0,42.79,6.0312,-0.031,0.005,0.005,57.0,54.0,52.0,12.7,1506.0,310.4,-0.1,0.7,452.224,13.68,0.031,279.2
01,2021-11-10T03:00:00,500.0,42.79,6.0312,-0.025,0.006,0.0,53.0,50.0,53.0,12.7,1505.9,312.4,-0.1,0.6,452.153,13.67,0.025,283.5
01,2021-11-10T03:30:00,500.0,42.79,6.0312,-0.025,0.018,0.017,56.0,50.0,52.0,12.7,1506.0,307.5,-0.2,0.6,452.196,13.68,0.03,305.8
01,2021-11-10T04:00:00,500.0,42.79,6.0312,-0.012,0.016,-0.008,56.0,54.0,52.0,12.7,1506.0,307.7,0.0,0.8,452.192,13.68,0.02,323.1
01,2021-11-10T04:30:00,500.0,42.79,6.0312,-0.007,0.027,-0.017,53.0,49.0,53.0,12.7,1506.0,308.7,-0.2,0.6,452.175,13.71,0.027,345.5
01,2021-11-10T05:00:00,500.0,42.79,6.0312,-0.016,0.034,0.012,53.0,51.0,53.0,12.7,1506.0,303.9,-0.1,0.6,452.125,13.72,0.037,334.8
01,2021-11-10T05:30:00,500.0,42.79,6.0312,0.0,0.038,0.003,57.0,52.0,48.0,12.7,1506.0,319.8,-0.1,0.7,452.172,13.7,0.038,0.0
01,2021-11-10T06:00:00,500.0,42.79,6.0312,-0.01,0.023,-0.001,55.0,51.0,55.0,12.7,1506.0,323.5,0.0,0.6,452.178,13.71,0.025,336.5
01,2021-11-10T06:30:00,500.0,42.79,6.0312,-0.018,0.016,0.005,62.0,52.0,51.0,12.7,1506.0,313.7,-0.1,0.7,452.2,13.73,0.024,311.6
01,2021-11-10T07:00:00,500.0,42.79,6.0312,-0.011,0.02,0.002,55.0,52.0,52.0,12.7,1506.0,312.6,-0.2,0.7,452.208,13.72,0.022,331.2
01,2021-11-10T07:30:00,500.0,42.79,6.0312,-0.007,0.03,-0.001,60.0,51.0,51.0,12.7,1506.0,315.4,-0.1,0.7,452.222,13.73,0.03,346.9
01,2021-11-10T08:00:00,500.0,42.79,6.0312,-0.002,0.017,0.004,58.0,52.0,52.0,12.7,1506.0,326.3,-0.1,0.7,452.26,13.73,0.017,353.3
01,2021-11-10T08:30:00,500.0,42.79,6.0312,-0.002,0.018,-0.004,58.0,53.0,51.0,12.7,1506.0,336.9,-0.1,0.7,452.274,13.73,0.018,353.7
01,2021-11-10T09:00:00,500.0,42.79,6.0312,0.001,0.014,0.002,58.0,51.0,53.0,12.7,1506.0,326.0,-0.2,0.7,452.338,13.73,0.014,4.1
01,2021-11-10T09:30:00,500.0,42.79,6.0312,-0.004,0.017,0.01,57.0,54.0,53.0,12.7,1506.1,328.2,-0.1,0.7,452.385,13.75,0.017,346.8
01,2021-11-10T10:00:00,500.0,42.79,6.0312,-0.006,0.02,0.015,57.0,53.0,55.0,12.7,1506.1,328.3,-0.1,0.6,452.409,13.75,0.02,343.3
01,2021-11-10T10:30:00,500.0,42.79,6.0312,0.009,0.01,-0.002,57.0,53.0,56.0,12.7,1506.1,316.3,-0.1,0.7,452.381,13.75,0.013,42.0
01,2021-11-10T11:00:00,500.0,42.79,6.0312,-0.006,0.004,0.002,56.0,51.0,58.0,12.7,1506.2,309.4,-0.1,0.6,452.384,13.77,0.007,303.7
01,2021-11-10T11:30:00,500.0,42.79,6.0312,-0.012,0.006,0.004,58.0,50.0,49.0,12.7,1506.2,302.7,-0.1,0.7,452.386,13.78,0.013,296.6
01,2021-11-10T12:00:00,500.0,42.79,6.0312,-0.012,0.001,0.006,58.0,54.0,51.0,12.7,1506.2,304.9,-0.2,0.7,452.395,13.78,0.012,274.8
01,2021-11-10T12:30:00,500.0,42.79,6.0312,-0.013,0.004,0.007,66.0,52.0,51.0,12.7,1506.2,316.1,-0.1,0.7,452.391,13.78,0.013,287.1
01,2021-11-10T13:00:00,500.0,42.79,6.0312,-0.012,0.009,-0.013,56.0,52.0,53.0,12.7,1506.2,322.6,-0.1,0.6,452.343,13.78,0.015,306.9
01,2021-11-10T13:30:00,500.0,42.79,6.0312,-0.007,0.0,0.008,56.0,52.0,54.0,12.7,1506.2,327.7,-0.2,0.6,452.281,13.78,0.007,270.0
01,2021-11-10T14:00:00,500.0,42.79,6.0312,-0.027,0.004,0.012,57.0,54.0,54.0,12.7,1506.2,332.0,-0.1,0.7,452.332,13.78,0.027,278.4
01,2021-11-10T14:30:00,500.0,42.79,6.0312,-0.031,0.0,-0.008,56.0,52.0,53.0,12.7,1506.2,322.0,-0.1,0.7,452.32,13.78,0.03,270.0
01,2021-11-10T15:00:00,500.0,42.79,6.0312,-0.035,0.008,0.012,56.0,54.0,53.0,12.7,1506.2,331.2,-0.1,0.7,452.308,13.77,0.035,282.9
01,2021-11-10T15:30:00,500.0,42.79,6.0312,-0.039,0.022,-0.012,58.0,53.0,52.0,12.7,1506.2,337.7,-0.2,0.6,452.29,13.77,0.044,299.4
01,2021-11-10T16:00:00,500.0,42.79,6.0312,-0.029,0.007,0.006,58.0,55.0,53.0,12.7,1506.2,336.1,-0.1,0.7,452.306,13.77,0.029,283.6
01,2021-11-10T16:30:00,500.0,42.79,6.0312,-0.045,0.021,-0.002,57.0,54.0,54.0,12.7,1506.1,336.8,-0.1,0.5,452.273,13.76,0.049,295.0
01,2021-11-10T17:00:00,500.0,42.79,6.0312,-0.037,0.023,0.017,61.0,54.0,55.0,12.7,1506.1,342.0,-0.2,0.7,452.235,13.76,0.043,301.9
01,2021-11-10T17:30:00,500.0,42.79,6.0312,-0.04,0.034,0.0,58.0,53.0,53.0,12.7,1506.2,348.0,-0.1,0.6,452.263,13.77,0.052,310.4
01,2021-11-10T18:00:00,500.0,42.79,6.0312,-0.027,0.041,0.001,57.0,57.0,53.0,12.7,1506.1,346.4,-0.2,0.6,452.221,13.76,0.049,326.6
01,2021-11-10T18:30:00,500.0,42.79,6.0312,-0.031,0.027,0.002,56.0,53.0,54.0,12.7,1506.1,340.6,-0.1,0.8,452.194,13.75,0.041,311.1
01,2021-11-10T19:00:00,500.0,42.79,6.0312,-0.043,0.022,-0.017,59.0,54.0,59.0,12.7,1506.1,341.7,-0.1,0.6,452.246,13.76,0.048,297.1
01,2021-11-10T19:30:00,500.0,42.79,6.0312,-0.026,0.039,0.007,57.0,54.0,56.0,12.7,1506.1,350.4,-0.2,0.7,452.185,13.76,0.046,326.3
01,2021-11-10T20:00:00,500.0,42.79,6.0312,-0.018,0.02,-0.004,62.0,60.0,56.0,12.7,1506.1,353.2,-0.2,0.7,452.189,13.76,0.026,318.0
01,2021-11-10T20:30:00,500.0,42.79,6.0312,-0.023,0.023,-0.004,56.0,56.0,55.0,12.7,1506.1,343.5,-0.2,0.6,452.212,13.75,0.032,315.0
01,2021-11-10T21:00:00,500.0,42.79,6.0312,-0.021,0.022,0.0,61.0,56.0,55.0,12.7,1506.1,352.1,-0.2,0.7,452.2,13.76,0.03,316.3
